Greenwood, MS

9:20 PM CDT on September 25, 2017 (GMT -0500)
Greenwood-Leflore

Weather History for KGWO - March, 2014

Change the Weather History Date:

Wednesday, March 26, 2014

  Actual Average Record
Temperature  
Mean Temperature 45 °F 58 °F  
Max Temperature 62 °F 70 °F 86 °F (1991)
Min Temperature 28 °F 46 °F 24 °F (1955)
Degree Days  
Heating Degree Days 20 8  
Month to date heating degree days 387 280  
Since 1 July heating degree days 3041 2511  
Cooling Degree Days 0 1  
Month to date cooling degree days 0 20  
Year to date cooling degree days 0 25  
Moisture  
Dew Point 25 °F    
Average Humidity 57    
Maximum Humidity 92    
Minimum Humidity 22    
Precipitation  
Precipitation 0.00 in 0.15 in 2.18 in (1949)
Month to date precipitation 1.91 3.56  
Year to date precipitation 8.19 12.50  
Sea Level Pressure  
Sea Level Pressure 30.27 in    
Wind  
Wind Speed 7 mph (ESE)    
Max Wind Speed 15 mph    
Max Gust Speed 19 mph    
Visibility 10 miles    
Events      
T = Trace of Precipitation, MM = Missing Value Source: NWS Daily Summary

Daily Weather History Graph

Daily Weather History Graph

Search for Another Location

Airport or City:

Trip Planner

Search our weather history database for the weather conditions in past years. The results will help you decide how hot, cold, wet, or windy it might be!

Date:

Astronomy

Mar. 26, 2014 Rise Set
Actual Time 6:55 AM CDT 7:16 PM CDT
Civil Twilight 6:31 AM CDT 7:41 PM CDT
Nautical Twilight 6:01 AM CDT 8:10 PM CDT
Astronomical Twilight 5:32 AM CDT 8:40 PM CDT
Moon 3:52 AM CDT 3:06 PM CDT
Length of Visible Light 13h 10m
Length of Day
12h 20m
Waning Crescent, 21% of the Moon is Illuminated
Mar 26
Waning Crescent
Mar 30
New
Apr 7
First Quarter
Apr 15
Full
Apr 22
Last Quarter

Hourly Weather History & Observations

Time (CDT) Temp. Windchill Dew Point Humidity Pressure Visibility Wind Dir Wind Speed Gust Speed Precip Events Conditions
12:53 AM 33.1 °F - 28.0 °F 82% 30.30 in 10.0 mi Calm Calm - N/A   Clear
1:53 AM 30.0 °F 25.2 °F 27.0 °F 88% 30.31 in 10.0 mi NE 4.6 mph - N/A   Clear
2:53 AM 30.9 °F 26.2 °F 27.0 °F 85% 30.32 in 10.0 mi NE 4.6 mph - N/A   Clear
3:53 AM 28.0 °F 22.8 °F 25.0 °F 88% 30.31 in 10.0 mi NE 4.6 mph - N/A   Clear
4:53 AM 28.9 °F 25.2 °F 26.1 °F 89% 30.31 in 10.0 mi NNE 3.5 mph - N/A   Clear
5:53 AM 30.0 °F 24.1 °F 26.1 °F 85% 30.32 in 10.0 mi ENE 5.8 mph - N/A   Clear
6:53 AM 30.0 °F 26.5 °F 25.0 °F 82% 30.35 in 10.0 mi NE 3.5 mph - N/A   Clear
7:53 AM 35.1 °F 32.2 °F 25.0 °F 67% 30.37 in 10.0 mi East 3.5 mph - N/A   Clear
8:53 AM 42.1 °F 37.1 °F 24.1 °F 49% 30.39 in 10.0 mi SE 8.1 mph - N/A   Clear
9:53 AM 48.0 °F - 21.0 °F 34% 30.37 in 10.0 mi East 8.1 mph - N/A   Clear
10:53 AM 50.0 °F - 19.0 °F 29% 30.38 in 10.0 mi East 8.1 mph - N/A   Clear
11:53 AM 52.0 °F - 19.0 °F 27% 30.36 in 10.0 mi Variable 4.6 mph - N/A   Clear
12:53 PM 55.0 °F - 19.0 °F 24% 30.32 in 10.0 mi Calm Calm - N/A   Clear
1:53 PM 57.9 °F - 21.0 °F 24% 30.28 in 10.0 mi East 8.1 mph - N/A   Clear
2:53 PM 60.1 °F - 21.9 °F 23% 30.25 in 10.0 mi Variable 6.9 mph - N/A   Clear
3:53 PM 61.0 °F - 23.0 °F 23% 30.20 in 10.0 mi SE 9.2 mph - N/A   Clear
4:53 PM 61.0 °F - 24.1 °F 24% 30.18 in 8.0 mi SE 10.4 mph - N/A   Clear
5:53 PM 60.1 °F - 25.0 °F 26% 30.17 in 5.0 mi SE 9.2 mph - N/A   Haze
6:53 PM 57.9 °F - 25.0 °F 28% 30.17 in 10.0 mi SSE 8.1 mph - N/A   Clear
7:53 PM 55.9 °F - 26.1 °F 32% 30.17 in 10.0 mi SE 4.6 mph - N/A   Clear
8:53 PM 53.1 °F - 28.9 °F 40% 30.17 in 6.0 mi SSE 6.9 mph - N/A   Haze
9:53 PM 54.0 °F - 28.0 °F 37% 30.17 in 10.0 mi South 9.2 mph - N/A   Clear
10:53 PM 51.1 °F - 30.0 °F 44% 30.17 in 10.0 mi South 8.1 mph - N/A   Clear
11:53 PM 51.1 °F - 30.9 °F 46% 30.18 in 10.0 mi South 8.1 mph - N/A   Scattered Clouds